Home > Weather > Lugano > Past weeks

Flag for Switzerland Weather for the Past 2 Weeks in Lugano, Switzerland

Now
61 °F

Sunny.


Feels Like: 61 °F
Forecast: 40 / 71 °F
Wind: 5 mph from North

Location: Lugano Airport

Current Time: May 2, 2016 at 10:44:39 AM

Latest Report: May 2, 2016 at 9:50 AM


Visibility: 10 mi

Pressure: 29.89 "Hg

Humidity: 55%

Dew Point: 45 °F

Location of LuganoLocation

Historic Weather in Lugano — Graph

°F

Lugano Temperature Yesterday

Maximum temperature yesterday: 57 °F (at 3:20 PM)
Minimum temperature yesterday: 45 °F (at 5:20 AM)
Average temperature yesterday: 50 °F

High & Low Weather Summary for the Past Weeks

 TemperatureHumidityPressure
High73 °F (Apr 19, 4:20 PM)100% (Apr 17, 3:50 PM)30.33 "Hg (Apr 17, 3:50 PM)
Low36 °F (Apr 25, 6:50 AM)15% (Apr 27, 4:20 PM)29.56 "Hg (Apr 24, 4:20 AM)
Average55 °F61%29.92 "Hg
* Reported Apr 17 9:20 AM — May 2 9:20 AM, Lugano, Weather by CustomWeather, © 2016

Note: Actual official high and low records may vary slightly from our data, if they occured in-between our weather recording intervals... More about our weather records

Advertising

Lugano Weather History for the Previous 24 Hours

Scroll right to see more
 ConditionsComfort  
Time TempWeatherWind HumidityBarometerVisibility
9:20 AM
Mon, May 2
57 °FSunny.3 mph63%29.89 "Hg10 mi
8:20 AM52 °FPassing clouds.3 mph77%29.89 "HgN/A
7:20 AM48 °FSunny.1 mph87%29.89 "Hg10 mi
6:50 AM46 °FPassing clouds.2 mph93%29.89 "HgN/A
6:20 AM46 °FPassing clouds.2 mph93%29.89 "HgN/A
5:50 AM46 °FPassing clouds.1 mph93%29.89 "HgN/A
5:20 AM46 °FPassing clouds.3 mph93%29.89 "HgN/A
4:50 AM46 °FClear.3 mph93%29.89 "HgN/A
4:20 AM46 °FPassing clouds.5 mph93%29.89 "HgN/A
3:50 AM45 °FClear.1 mph93%29.89 "HgN/A
3:20 AM45 °FQuite cool.2 mph93%29.92 "HgN/A
2:50 AM45 °FPartly cloudy.1 mph93%29.92 "HgN/A
2:20 AM43 °FPartly cloudy.2 mph100%29.95 "HgN/A
1:50 AM43 °FClear.1 mph100%29.95 "Hg10 mi
1:20 AM45 °FClear.2 mph93%29.95 "Hg10 mi
12:20 AM45 °FClear.1 mph100%29.98 "Hg10 mi
11:50 PM
Sun, May 1
45 °FClear.2 mph100%29.98 "Hg10 mi
11:20 PM46 °FClear.2 mph93%29.98 "Hg10 mi
10:50 PM48 °FCool.3 mph87%29.98 "HgN/A
10:20 PM50 °FClear.1 mph88%29.95 "Hg10 mi
9:50 PM50 °FPassing clouds.2 mph88%29.95 "HgN/A
9:20 PM52 °FScattered clouds.2 mph82%29.95 "HgN/A
8:50 PM54 °FScattered clouds.2 mph72%29.92 "HgN/A
8:20 PM54 °FScattered clouds.3 mph77%29.92 "HgN/A
7:50 PM54 °FPartly sunny.5 mph77%29.92 "HgN/A
7:20 PM55 °FPartly sunny.5 mph72%29.92 "HgN/A
6:50 PM55 °FPartly sunny.7 mph67%29.92 "HgN/A
6:20 PM55 °FPartly sunny.8 mph72%29.92 "HgN/A
5:50 PM57 °FPartly sunny.8 mph63%29.92 "HgN/A
5:20 PM57 °FPartly sunny.7 mph63%29.92 "HgN/A
4:50 PM57 °FPartly sunny.6 mph63%29.92 "HgN/A
4:20 PM57 °FBroken clouds.6 mph63%29.92 "HgN/A
3:50 PM55 °FBroken clouds.6 mph63%29.92 "HgN/A
3:20 PM57 °FBroken clouds.7 mph63%29.92 "HgN/A
2:50 PM55 °FBroken clouds.5 mph67%29.92 "HgN/A
2:20 PM55 °FBroken clouds.6 mph72%29.92 "HgN/A
1:50 PM54 °FPartly sunny.3 mph82%29.92 "HgN/A
1:20 PM52 °FPartly sunny.3 mph77%29.92 "HgN/A
12:50 PM50 °FPartly sunny.3 mph82%29.92 "HgN/A
12:20 PM50 °FPartly sunny.3 mph82%29.92 "HgN/A
11:50 AM48 °FSprinkles. Low clouds.2 mph87%29.92 "HgN/A
11:20 AM48 °FSprinkles. Low clouds.2 mph94%29.92 "HgN/A
10:50 AM46 °FLow clouds.2 mph93%29.92 "HgN/A
10:20 AM46 °FLight rain. Mostly cloudy.3 mph93%29.92 "HgN/A
Weather by CustomWeather, © 2016

See weather overviewHow to use our weather pages